Location: St. Louis
(38.6270°N, 90.1994°W)
Time: 21:23:30
(UTC-05:00)

ISS - Pass Details

Date: 07 December 2013
Orbit: 401 x 404 km, 51.6° (Epoch: 24 July)

Event Time Altitude Azimuth Distance (km) Brightness Sun altitude
Rises 18:43:53 0° 209° (SSW) 2,329 1.1 -23.6°
Reaches altitude 10° 18:46:06 10° 198° (SSW) 1,467 -0.2 -24.1°
Enters shadow 18:46:47 15° 192° (SSW) 1,224 -0.7 -24.2°
